loading
DOY 175 | 2024-06-23T16:50:44Z

SCOUT X-4 DEB, 805

Orbit data source: Space-Track

SCOUT X-4 DEB, 805 is space debris in LEO originally from a launch on Thu, 04 Jun 1964 UTC launched from the Air Force Western Test Range (AFWTR). Debris objects in space refer to the collection of defunct objects orbiting the Earth. Examples of debris include non-operational satellites, rocket bodies, and fragments generated from explosions, collisions, or faulty payload assembly.

Loading next visibility...
Loading greatness...
SCOUT X-4 DEB details
NORAD ID805
COSPAR ID
1964-026B
Orbit
LEO
Last TLE update1 day ago
Origin
Flag of USUSN BuWeps (US)
ManufacturerUnknown
BusUnknown
MotorUnknown
MassWet unknown, Dry mass unknown
Launch date (UTC)
1964-06-04 (60 years ago)
Launch vehicleUnknown
Launch site
Air Force Western Test Range (AFWTR)
Object type
Payload
Rocket body
Debris
Radar Cross SectionSmall (<0.1 m²)
Predictive object data (real-time)
Latitude69.04649°
Longitude-85.59318°
Altitude774.91 km
Speed7.485 km/s
Apparent Right ascension17h 58m 14s
Apparent Declination26° 54' 03"
Sunlit
Object is in daylight
Predictive observer data (real-time)
Local Sidereal Time03:59:39
Azimuth332.418° NNW
Elevation-17.707°
Doppler factor1
Orbital elements
Apogee807.946 km
Perigee759.683 km
Semi-major axis7,161.951 km
Eccentricity0.0033694
Inclination89.8765°
RAAN340.1174°
Arg. of periapsis79.4307°
True anomaly280.68897°
Mean anomaly281.0682°
Mean motion3.58093 °/min
BSTAR0.00080311
Period100.53 mins
Definitive object data (Epoch: 2024-06-22T10:19:40.667Z)
Latitude-0.00006°
Longitude-85.89583°
Altitude785.397 km
Speed7.463 km/s
True Right ascension22h 40m 28s
True Declination0° 00' 00"
Sunlit
Object was in daylight at TLE epoch
TLE from 1 day ago
0 SCOUT X-4 DEB
1 00805U 64026B   24174.43033180  .00002156  00000-0  80311-3 0  9991
2 00805  89.8765 340.1174 0033694  79.4307 281.0682 14.31451734 86153
Epoch: 2024-06-22T10:19Z
No data available

SCOUT X-4 DEB Visibility forecast

Observer location: 39.9160978°, -105.1181434, 0m alt.

SCOUT X-4 DEB is not visible in the next 10 days
Span
Click to sort rows by Start time (UTC) header in descending order
Start Az.
Max El. time (UTC)
Max El. Az.
Max El.
End time (UTC)
End Az.